• In Belarus
  • List of Countries
  • For 7 days
  • Water Temperature
  • Weather Map
  • Weather Widgets
  • user-avatar
    Login

    Hourly Weather Nikolskoe

    Today, 1 June, Monday

    Time Temperature Precipitation Wind Pressure Humidity
    00:00 +10°C° 0 mm 1 mps 745 mmHg 73%
    01:00 +10°C° 0 mm 1 mps 745 mmHg 73%
    02:00 +9°C° 0 mm 1 mps 744 mmHg 72%
    03:00 +9°C° 0 mm 1 mps 744 mmHg 72%
    04:00 +9°C° 0 mm 2 mps 744 mmHg 71%
    05:00 +10°C° 0 mm 2 mps 744 mmHg 69%
    06:00 +10°C° 0 mm 2 mps 744 mmHg 68%
    07:00 +13°C° 0 mm 2 mps 745 mmHg 63%
    08:00 +13°C° 0 mm 3 mps 745 mmHg 57%
    09:00 +14°C° 0 mm 3 mps 745 mmHg 52%
    10:00 +16°C° 0 mm 3 mps 745 mmHg 49%
    11:00 +17°C° 0 mm 3 mps 745 mmHg 45%
    12:00 +17°C° 0 mm 3 mps 745 mmHg 42%
    13:00 +18°C° 0 mm 3 mps 745 mmHg 40%
    14:00 +18°C° 0 mm 3 mps 745 mmHg 39%
    15:00 +18°C° 0 mm 2 mps 745 mmHg 37%
    16:00 +18°C° 0 mm 2 mps 745 mmHg 39%
    17:00 +18°C° 0 mm 2 mps 746 mmHg 42%
    18:00 +18°C° 0 mm 1 mps 746 mmHg 44%
    19:00 +16°C° 0 mm 1 mps 745 mmHg 49%
    20:00 +14°C° 0 mm 1 mps 745 mmHg 55%
    21:00 +13°C° 0 mm 1 mps 745 mmHg 60%
    22:00 +12°C° 0.2 mm 2 mps 745 mmHg 66%
    23:00 +12°C° 0.2 mm 2 mps 745 mmHg 72%

    Tomorrow, 2 June, Tuesday

    Time Temperature Precipitation Wind Pressure Humidity
    00:00 +10°C° 0.2 mm 3 mps 744 mmHg 78%
    01:00 +10°C° 0.4 mm 3 mps 744 mmHg 82%
    02:00 +9°C° 0.4 mm 3 mps 743 mmHg 87%
    03:00 +8°C° 0.4 mm 4 mps 743 mmHg 91%
    04:00 +8°C° 1.2 mm 4 mps 742 mmHg 92%
    05:00 +9°C° 1.2 mm 3 mps 741 mmHg 93%
    06:00 +8°C° 1.2 mm 3 mps 741 mmHg 94%
    07:00 +9°C° 0.1 mm 3 mps 740 mmHg 94%
    08:00 +9°C° 0.1 mm 3 mps 740 mmHg 94%
    09:00 +10°C° 0.1 mm 3 mps 739 mmHg 94%
    10:00 +10°C° 0.1 mm 3 mps 739 mmHg 94%
    11:00 +10°C° 0.1 mm 3 mps 740 mmHg 93%
    12:00 +10°C° 0.1 mm 3 mps 740 mmHg 93%
    13:00 +10°C° 0.2 mm 2 mps 740 mmHg 94%
    14:00 +10°C° 0.2 mm 2 mps 741 mmHg 94%
    15:00 +10°C° 0.2 mm 2 mps 741 mmHg 94%
    16:00 +9°C° 0.2 mm 2 mps 742 mmHg 95%
    17:00 +9°C° 0.2 mm 3 mps 742 mmHg 95%
    18:00 +9°C° 0.2 mm 3 mps 743 mmHg 96%
    19:00 +9°C° 0.2 mm 3 mps 743 mmHg 96%
    20:00 +9°C° 0.2 mm 3 mps 744 mmHg 96%
    21:00 +8°C° 0.2 mm 3 mps 744 mmHg 96%
    22:00 +8°C° 0.1 mm 3 mps 745 mmHg 96%
    23:00 +8°C° 0.1 mm 3 mps 745 mmHg 97%

    Day after tomorrow, 3 June, Wednesday

    Time Temperature Precipitation Wind Pressure Humidity
    00:00 +8°C° 0.1 mm 2 mps 745 mmHg 97%
    01:00 +8°C° 0 mm 2 mps 746 mmHg 97%
    02:00 +8°C° 0 mm 2 mps 746 mmHg 97%
    03:00 +8°C° 0 mm 2 mps 746 mmHg 97%
    04:00 +8°C° 0 mm 2 mps 746 mmHg 96%
    05:00 +8°C° 0 mm 2 mps 747 mmHg 95%
    06:00 +8°C° 0 mm 2 mps 747 mmHg 95%
    07:00 +9°C° 0 mm 3 mps 747 mmHg 85%
    08:00 +11°C° 0 mm 3 mps 747 mmHg 75%
    09:00 +12°C° 0 mm 3 mps 748 mmHg 65%
    10:00 +13°C° 0 mm 3 mps 747 mmHg 57%
    11:00 +15°C° 0 mm 2 mps 747 mmHg 49%
    12:00 +16°C° 0 mm 2 mps 747 mmHg 41%
    13:00 +17°C° 0 mm 2 mps 747 mmHg 41%
    14:00 +17°C° 0 mm 2 mps 747 mmHg 41%
    15:00 +17°C° 0 mm 2 mps 747 mmHg 41%
    16:00 +16°C° 0.4 mm 2 mps 747 mmHg 55%
    17:00 +14°C° 0.4 mm 2 mps 747 mmHg 69%
    18:00 +12°C° 0.4 mm 3 mps 747 mmHg 83%
    19:00 +12°C° 0.3 mm 2 mps 747 mmHg 87%
    20:00 +9°C° 0.3 mm 2 mps 747 mmHg 92%
    21:00 +9°C° 0.3 mm 1 mps 747 mmHg 96%
    22:00 +8°C° 0 mm 1 mps 747 mmHg 96%
    23:00 +8°C° 0 mm 1 mps 747 mmHg 96%

    4 June, Thursday

    Time Temperature Precipitation Wind Pressure Humidity
    00:00 +7°C° 0 mm 1 mps 747 mmHg 97%
    01:00 +6°C° 0 mm 1 mps 747 mmHg 97%
    02:00 +6°C° 0 mm 1 mps 747 mmHg 97%
    03:00 +5°C° 0 mm 1 mps 747 mmHg 97%
    04:00 +6°C° 0 mm 1 mps 747 mmHg 96%
    05:00 +7°C° 0 mm 1 mps 747 mmHg 94%
    06:00 +7°C° 0 mm 1 mps 748 mmHg 92%
    07:00 +9°C° 0 mm 1 mps 748 mmHg 82%
    08:00 +9°C° 0 mm 2 mps 747 mmHg 72%
    09:00 +10°C° 0 mm 2 mps 747 mmHg 62%
    10:00 +12°C° 0.2 mm 2 mps 747 mmHg 58%
    11:00 +13°C° 0.2 mm 2 mps 747 mmHg 55%
    12:00 +12°C° 0.2 mm 3 mps 747 mmHg 51%
    13:00 +12°C° 0.2 mm 3 mps 747 mmHg 52%
    14:00 +13°C° 0.2 mm 3 mps 747 mmHg 52%
    15:00 +13°C° 0.2 mm 3 mps 746 mmHg 52%
    16:00 +12°C° 0.3 mm 3 mps 746 mmHg 55%
    17:00 +12°C° 0.3 mm 3 mps 746 mmHg 59%
    18:00 +11°C° 0.3 mm 3 mps 746 mmHg 63%
    19:00 +9°C° 0.1 mm 2 mps 746 mmHg 69%
    20:00 +8°C° 0.1 mm 2 mps 746 mmHg 76%
    21:00 +6°C° 0.1 mm 2 mps 746 mmHg 83%
    22:00 +5°C° 0 mm 2 mps 746 mmHg 86%
    23:00 +5°C° 0 mm 1 mps 746 mmHg 89%

    5 June, Friday

    Time Temperature Precipitation Wind Pressure Humidity
    00:00 +5°C° 0 mm 1 mps 745 mmHg 92%
    01:00 +4°C° 0 mm 1 mps 745 mmHg 93%
    02:00 +4°C° 0 mm 1 mps 745 mmHg 95%
    03:00 +4°C° 0 mm 1 mps 744 mmHg 96%
    04:00 +4°C° 0.1 mm 1 mps 744 mmHg 96%
    05:00 +5°C° 0.1 mm 1 mps 744 mmHg 95%
    06:00 +6°C° 0.1 mm 1 mps 744 mmHg 95%
    07:00 +7°C° 0.4 mm 1 mps 744 mmHg 95%
    08:00 +7°C° 0.4 mm 1 mps 743 mmHg 94%
    09:00 +8°C° 0.4 mm 1 mps 743 mmHg 94%
    10:00 +8°C° 1.1 mm 1 mps 743 mmHg 90%
    11:00 +9°C° 1.1 mm 1 mps 743 mmHg 87%
    12:00 +10°C° 1.1 mm 1 mps 743 mmHg 84%
    13:00 +11°C° 0.2 mm 1 mps 743 mmHg 79%
    14:00 +12°C° 0.2 mm 1 mps 743 mmHg 75%
    15:00 +13°C° 0.2 mm 2 mps 743 mmHg 70%
    16:00 +13°C° 0.4 mm 1 mps 743 mmHg 73%
    17:00 +12°C° 0.4 mm 1 mps 743 mmHg 76%
    18:00 +12°C° 0.4 mm 1 mps 742 mmHg 79%
    19:00 +11°C° 0.3 mm 1 mps 742 mmHg 83%
    20:00 +10°C° 0.3 mm 1 mps 742 mmHg 87%
    21:00 +9°C° 0.3 mm 1 mps 742 mmHg 92%
    22:00 +8°C° 0.1 mm 1 mps 742 mmHg 93%
    23:00 +7°C° 0.1 mm 1 mps 742 mmHg 94%

    6 June, Saturday

    Time Temperature Precipitation Wind Pressure Humidity
    00:00 +6°C° 0.1 mm 1 mps 742 mmHg 96%
    01:00 +6°C° 0 mm 1 mps 742 mmHg 96%
    02:00 +6°C° 0 mm 1 mps 742 mmHg 96%
    03:00 +5°C° 0 mm 1 mps 742 mmHg 95%
    04:00 +6°C° 0 mm 1 mps 742 mmHg 94%
    05:00 +7°C° 0 mm 1 mps 743 mmHg 94%
    06:00 +7°C° 0 mm 1 mps 743 mmHg 93%
    07:00 +8°C° 0 mm 2 mps 743 mmHg 84%
    08:00 +10°C° 0 mm 2 mps 743 mmHg 76%
    09:00 +13°C° 0 mm 2 mps 743 mmHg 67%
    10:00 +14°C° 0.1 mm 2 mps 744 mmHg 61%
    11:00 +16°C° 0.1 mm 2 mps 744 mmHg 54%
    12:00 +17°C° 0.1 mm 2 mps 744 mmHg 47%
    13:00 +17°C° 0 mm 2 mps 744 mmHg 48%
    14:00 +17°C° 0 mm 2 mps 744 mmHg 49%
    15:00 +17°C° 0 mm 2 mps 744 mmHg 50%
    16:00 +17°C° 0 mm 2 mps 744 mmHg 51%
    17:00 +17°C° 0 mm 2 mps 744 mmHg 52%
    18:00 +17°C° 0 mm 2 mps 745 mmHg 53%
    19:00 +15°C° 0 mm 2 mps 745 mmHg 64%
    20:00 +14°C° 0 mm 2 mps 745 mmHg 74%
    21:00 +12°C° 0 mm 1 mps 745 mmHg 85%
    22:00 +11°C° 0.1 mm 1 mps 746 mmHg 89%
    23:00 +11°C° 0.1 mm 1 mps 746 mmHg 92%
    Show more